sat.trackr.live / text

‹ back to catalog

TRANSPORTER-17 OBJECT AE

NORAD 69897 · 2026-156AE

PAYLOAD ACTIVE UNKNOWN

§ Identity

Operator
Country
TBD
Launch date
2026-07-07
Launch site
AFWTR
Launch vehicle
Mass (kg)
RCS (m²)

External: N2YO · Heavens-Above · Gunter

§ Orbital elements

Epoch: 2026-09-19T23:29:48.514272Z

Period
96.59 min
Inclination
97.7484°
Eccentricity
0.0000445
Mean motion
14.90883599 rev/d
Perigee alt
594.9 km
Apogee alt
595.5 km
Semi-major
6,973.3 km
B*
9.7256e-5
RAAN
162.0999°
Arg perigee
274.3948°
Mean anomaly
85.7219°
Rev number
1,112

§ Raw data

TRANSPORTER-17 OBJECT AE1 69897U 26156AE  26262.97903373  .00000904  00000+0  97256-4 0  99932 69897  97.7484 162.0999 0000445 274.3948  85.7219 14.90883599 11129

JSON: /api/v1/satellites/69897 · /tle

For live sub-satellite position, see the globe view (requires WebGL).

§ Visibility from observer

Set your observer location to see the next 7 days of passes ≥ 10°. The values pass through the URL so the page stays shareable.

No JS? Fill the form by hand. The geolocation button needs JavaScript.